Location: Newark
(49.2191°N, 12.6671°E)
Time: 16:02:20
(UTC+00:00)

Vanguard 1 Rocket - All Passes

Search period start: 28 January 2020 00:00
Search period end: 07 February 2020 00:00
Orbit: 650 x 4226 km, 34.3° (Epoch: 27 January)

Date Brightness Start Highest point End Pass type
(mag) Time Alt. Az. Time Alt. Az. Time Alt. Az.
28 Jan - 08:48:23 10° SW 08:55:17 32° SSE 09:07:03 10° ESE daylight
28 Jan - 11:11:13 10° WSW 11:20:58 40° S 11:38:17 10° ESE daylight
28 Jan - 13:36:26 10° WSW 13:48:28 30° SSW 14:06:33 10° SSE daylight
28 Jan - 16:09:49 10° WSW 16:16:11 12° SW 16:23:17 10° SSW visible
29 Jan - 07:39:19 10° SSW 07:44:33 22° SSE 07:52:26 10° ESE daylight
29 Jan - 10:00:58 10° WSW 10:09:06 38° S 10:23:42 10° ESE daylight
29 Jan - 12:25:02 10° WSW 12:35:48 34° SSW 12:53:32 10° SE daylight
29 Jan - 14:53:04 10° WSW 15:03:31 19° SW 15:16:57 10° S daylight
30 Jan - 06:31:50 10° SSE 06:34:16 12° SE 06:37:06 10° ESE daylight
30 Jan - 08:51:07 10° SW 08:57:47 33° SSE 09:09:12 10° ESE daylight
30 Jan - 11:14:15 10° WSW 11:23:30 37° S 11:39:40 10° SE daylight
30 Jan - 13:40:01 10° WSW 13:50:49 25° SSW 14:06:28 10° SSE daylight
31 Jan - 07:41:47 10° SSW 07:46:59 24° SSE 07:54:57 10° ESE daylight
31 Jan - 10:03:55 10° WSW 10:11:41 36° S 10:25:27 10° ESE daylight
31 Jan - 12:28:19 10° WSW 12:38:17 29° SSW 12:54:09 10° SSE daylight
31 Jan - 14:58:44 10° WSW 15:05:45 13° SW 15:14:04 10° SSW daylight
01 Feb - 06:33:27 10° S 06:36:36 14° SE 06:40:34 10° ESE daylight
01 Feb - 08:53:58 10° SW 09:00:23 32° SSE 09:11:17 10° ESE daylight
01 Feb - 11:17:23 10° WSW 11:26:06 32° S 11:40:51 10° SE daylight
01 Feb - 13:44:06 10° WSW 13:53:12 19° SSW 14:05:38 10° S daylight
02 Feb - 07:44:26 10° SSW 07:49:32 25° SSE 07:57:23 10° ESE daylight
02 Feb - 10:06:58 10° WSW 10:14:21 33° S 10:27:05 10° SE daylight
02 Feb - 12:31:52 10° WSW 12:40:49 24° SSW 12:54:21 10° SSE daylight
03 Feb - 06:35:35 10° S 06:39:04 16° SSE 06:43:36 10° ESE daylight
03 Feb - 08:56:56 10° SW 09:03:02 31° S 09:13:17 10° ESE daylight
03 Feb - 11:20:42 10° WSW 11:28:44 27° SSW 11:41:45 10° SE daylight
03 Feb - 13:49:21 10° WSW 13:55:39 14° SSW 14:03:24 10° S daylight
04 Feb - 07:47:13 10° SW 07:52:10 25° SSE 07:59:44 10° ESE daylight
04 Feb - 10:10:08 10° WSW 10:17:03 29° S 10:28:32 10° SE daylight
04 Feb - 12:35:54 10° WSW 12:43:24 18° SSW 12:53:53 10° S daylight
05 Feb - 06:38:01 10° SSW 06:41:38 18° SSE 06:46:23 10° ESE daylight
05 Feb - 08:59:58 10° SW 09:05:46 28° S 09:15:10 10° SE daylight
05 Feb - 11:24:16 10° WSW 11:31:25 22° SSW 11:42:16 10° SSE daylight
06 Feb - 07:50:08 10° SW 07:54:51 25° S 08:01:59 10° ESE daylight
06 Feb - 10:13:27 10° WSW 10:19:47 24° S 10:29:44 10° SE daylight
06 Feb - 12:41:05 10° SW 12:46:02 13° SSW 12:52:07 10° S daylight
